CZ-6A DEB, 54492

Orbit data source: Space-Track

CZ-6A DEB, 54492 is space debris in SSO originally from a launch on Fri, 11 Nov 2022 UTC launched from the Taiyaun Space Center, China (TSC). Debris objects in space refer to the collection of defunct objects orbiting the Earth. Examples of debris include non-operational satellites, rocket bodies, and fragments generated from explosions, collisions, or faulty payload assembly.

Loading next visibility...
Identifier
54492, 2022-151HU
Orbit
SSO
Country
Flag of CNCN / PRC
Related business
Manufacturer
SAST
Mission
Spacecraft
Bus & Motor
Unknown
Mass
Unknown
Launch date (UTC)
2022-11-11 (3 years ago)
Launch vehicle
Unknown
Launch site
Taiyaun Space Center, China (TSC)
Object type
Payload
Rocket body
Debris
Shape & HBR
Unknown shape, 0.1 m
Radar Cross Section
Small (<0.1 m²)

Expand to show TLE details & history
Last TLE update: 23 hours ago

TLE from 23 hours ago
0 CZ-6A DEB
1 54492U 22151HU  25351.43225927  .00000180  00000-0  16080-3 0  9992
2 54492  98.9406 328.2778 0122076 225.6126 133.4988 13.93330422156964
Epoch: 2025-12-17T10:22Z
TLE epoch observation values (Epoch: 2025-12-17T10:22:27.200Z)
Latitude
-0.00005°
Longitude
86.36227°
Altitude
981.731 km
Speed
7.33 km/s
True Right ascension
21h 53m 06s
True Declination
0° 00' 00"
Sunlit
Object was in daylight at epoch
Visualization orbit readout
Latitude
Unknown
Longitude
Unknown
Altitude
Unknown
Speed
Unknown
Apparent Right ascension
Unknown
Apparent Declination
Unknown
Sunlit
N/A
Visualization observer readout
Local Sidereal Time
08:17:42
Azimuth
Unknown
Elevation
Unknown
Doppler factor
Unknown
Orbital elements
Apogee altitude
1,003.209 km
Perigee altitude
825.166 km
Semi-major axis
7,292.325 km
Eccentricity
0.01221
Inclination
98.9406°
RAAN
328.2778°
Arg. of periapsis
225.6126°
True anomaly
134.50293°
Mean anomaly
133.4988°
Eccentric anomaly
134.00192°
Mean motion
3.48533 °/min
Orbital period
103.29 mins
BSTAR
0.0001608
Loading maneuver chart data...
Computing Atmospheric mass density...
Loading historical data...
Loading historical data...
Loading historical data...
Loading historical data...
Loading historical data...
Loading historical data...
Loading historical data...

Documentation

Showing up to 5 results
|